Overview Statistics Trail Chart Weather Telemetry Raw packets
 

This is the latest recevied weather packets stored in our database for station/object DF7ER-12. If no packets are shown the sender has not sent any weather packets the latest 10 day(s).

<< 26 27 28 29 30 31 32 >>
Time Temp. Humidity Pressure Rain* Wind** Luminosity Snow
1788493072 21.67° C 93% 1001.4 hPa - - - -
1788492751 21.67° C 93% 1001.3 hPa - - - -
1788492452 21.11° C 93% 1001.4 hPa - - - -
1788492150 21.11° C 92% 1001.5 hPa - - - -
1788491850 21.67° C 92% 1001.6 hPa - - - -
1788491550 21.11° C 93% 1001.6 hPa - - - -
1788491250 21.11° C 94% 1001.7 hPa - - - -
1788489680 21.67° C 88% 1002.1 hPa - - - -
1788489380 21.67° C 87% 1002.1 hPa - - - -
1788489080 21.67° C 89% 1002.2 hPa - - - -
1788488780 21.67° C 89% 1002.2 hPa - - - -
1788488480 21.67° C 89% 1002.3 hPa - - - -
1788488180 21.67° C 88% 1002.4 hPa - - - -
1788487880 21.67° C 89% 1002.3 hPa - - - -
1788487580 21.67° C 87% 1002.3 hPa - - - -
1788487280 21.67° C 88% 1002.5 hPa - - - -
1788486980 21.67° C 88% 1002.6 hPa - - - -
1788486680 21.67° C 87% 1002.8 hPa - - - -
1788486380 21.67° C 87% 1002.8 hPa - - - -
1788486080 21.67° C 88% 1002.7 hPa - - - -
1788485780 21.67° C 86% 1002.6 hPa - - - -
1788485480 21.67° C 88% 1002.7 hPa - - - -
1788485180 21.67° C 87% 1002.7 hPa - - - -
1788484880 21.67° C 88% 1002.9 hPa - - - -
1788484580 21.67° C 86% 1002.9 hPa - - - -

* Rain since midnight (hover to see other rain measurements)
** Current wind speed in m/s (hover to see current wind gust speed)